Regional Weather Roundup
Issued by NWS

Home | Current Version | Previous Version | Graphics & Text | Print | Product List | Glossary On
Versions: 1 2 3 4 5 6 7 8 9 10 11 12 13 14 15 16 17 18 19 20 21 22 23 24 25 26 27 28 29 30 31 32 33 34 35 36 37 38 39 40 41 42 43 44 45 46 47 48 49 50
000
ASUS45 KBOU 180510
RWRCO

WEATHER ROUNDUP FOR COLORADO
NATIONAL WEATHER SERVICE DENVER/BOULDER CO
1000 PM MST SUN DEC 17 2017

NOTE: "FAIR" INDICATES FEW OR NO CLOUDS BELOW 12000 FEET WITH NO
SIGNIFICANT WEATHER AND/OR OBSTRUCTIONS TO VISIBILITY.

COZ001>005-013-030-031-180600-
...NORTHWEST COLORADO...

CITY           SKY/WX    TMP DP  RH WIND       PRES   REMARKS
CRAIG          FAIR      11   7  84 W5        30.15R WCI   3
HAYDEN         FAIR      20  15  81 E7        30.14S WCI  11
MEEKER         FAIR      18  13  80 CALM      30.13S
RABBIT EARS PA CLOUDY   N/A N/A N/A W10G17    30.06F
STEAMBOAT SPGS FAIR      18  15  89 CALM      30.12F
WALDEN         FAIR      12   7  79 SE8       30.07S WCI   1
$$

COZ006>008-011-180600-
...WEST CENTRAL VALLEYS...

CITY           SKY/WX    TMP DP  RH WIND       PRES   REMARKS
GRAND JUNCTION FAIR      23   8  52 E6        30.15R WCI  16
MONTROSE       FAIR      21   7  54 S9        30.19R WCI  11
EAGLE          FAIR      18   9  68 CALM      30.17R
RIFLE          FAIR      21   8  57 CALM      30.16R
DELTA          FAIR      24   4  41 NE6       30.18R WCI  17
NUCLA          FAIR      23   0  36 E9        30.18R WCI  13
$$

COZ017>023-064>068-180600-
...SOUTHWEST COLORADO...

CITY           SKY/WX    TMP DP  RH WIND       PRES   REMARKS
DURANGO        FAIR      21   5  50 N9        30.10R WCI  11
CORTEZ         FAIR      19   3  49 E9        30.14R WCI   8
PAGOSA SPRINGS FAIR      22   2  42 CALM      30.13R
TELLURIDE      FAIR      23   2  40 SE3       30.16R
WOLF CREEK PAS FAIR      16   1  53 S15G22    30.18R WCI   1
$$

COZ009-010-012-014-032>034-037-058>063-180600-
...CENTRAL COLORADO...

CITY           SKY/WX    TMP DP  RH WIND       PRES   REMARKS
ASPEN          FAIR      19   7  59 SW8       30.12S WCI   9
BUENA VISTA    FAIR      29   4  34 NW16G24   30.05R WCI  18
COPPER MTN     NOT AVBL
BERTHOUD PASS  FAIR       9  -4  56 NW29G38   30.03F WCI -14
COTTONWOOD PAS FAIR      32   9  37 N9G18     30.04R WCI  24
GUNNISON       FAIR      15   3  59 CALM      30.15R
KREMMLING      FAIR      14  10  85 CALM      30.15R
LEADVILLE      FAIR       9  -1  64 NE8       30.08R WCI  -3
MONARCH PASS   FAIR      14   1  57 W41       30.17R WCI -10
SALIDA         FAIR      30   3  31 NW6       30.12R WCI  24
SUNLIGHT       FAIR      14   5  67 SW8       30.16R WCI   3
WILKERSON PASS FAIR      21  -2  35 NW12G21   30.05S WCI   9
$$

COZ069>075-180600-
...SAN LUIS VALLEY/SANGRE DE CRISTO MOUNTAINS...

CITY           SKY/WX    TMP DP  RH WIND       PRES   REMARKS
ALAMOSA        FAIR      12   8  84 CALM      30.09R
DEL NORTE      FAIR      22   6  48 W9        30.10R WCI  12
LA VETA PASS   FAIR      27   7  43 S31G46      N/A  WCI  10
SAGUACHE       FAIR      27   3  36 N13       30.10R WCI  16
$$

COZ035-036-038>040-180600-
...NORTHERN COLORADO FRONT RANGE...

CITY           SKY/WX    TMP DP  RH WIND       PRES   REMARKS
DENVER INTL AP FAIR      23  17  78 SW10      29.94S WCI  12
DMNS CITY PARK NOT AVBL
AURORA         PTCLDY    24  19  81 S7        29.95S WCI  15
FRONT RANGE AP FAIR      30  23  76 SW9       29.95S WCI  22
ERIE MUNI ARPT FAIR      18  16  93 CALM      30.01S FOG
BOULDER MUN AP FAIR      28  27  93 CALM      29.94F
CENTENNIAL     FAIR      24  19  81 CALM      29.95R
BROOMFIELD     FAIR      28  27  93 CALM      29.94F
FORT COLLINS   FAIR      24  22  91 CALM      29.96S
LONGMONT       FAIR      25  22  87 W5        29.97F WCI  19
$$

COZ041-046-047-076>085-087-088-180600-
...PIKES PEAK/PALMER DIVIDE AND SOUTHERN FOOTHILLS...

CITY           SKY/WX    TMP DP  RH WIND       PRES   REMARKS
COLO. SPRINGS  FAIR      17  14  88 NE9       29.98S WCI   6
A. F. ACADEMY  FAIR      17  14  88 NW7       29.97R WCI   7
SCHRIEVER AFB  FAIR      22  19  89 CALM      29.99R
CHEYENNE MTN   FAIR      33  12  42 CALM      29.91R
ELLICOTT         N/A    N/A N/A N/A CALM      29.97S
FALCON         FAIR      20  18  91 NW6       29.98R WCI  12
FORT CARSON    FAIR      22  17  84 N5        29.97R WCI  15
LIMON          FAIR      14  13  95 CALM      29.97S
MONUMENT HILL  FAIR      21  12  68 SW7       29.98R WCI  13
CANON CITY     FAIR      23  21  93 CALM      29.99R
WALSENBURG     FAIR      30  18  59 W13       29.99S WCI  20
TRINIDAD       FAIR      38  15  39 W17       29.97R
$$

COZ042>045-048>051-090-091-180600-
...NORTHEAST COLORADO...

CITY           SKY/WX    TMP DP  RH WIND       PRES   REMARKS
GREELEY ARPT   FAIR      18  15  88 NW8       29.97S WCI   8
AKRON          FAIR      28  21  75 SW14      29.95F WCI  17
BURLINGTON     FAIR      25  21  85 SW10      29.99F WCI  15
WRAY           FAIR      27  23  86 W8        29.97F WCI  18
YUMA           FAIR      27  21  80 SW12      29.96S WCI  16
STERLING       FAIR      21  19  93 CALM      29.95F
HOLYOKE        FAIR      25  21  86 SW7       29.96F WCI  17
FORT MORGAN    FAIR      26  23  87 S3        29.96F
$$

COZ086-089-092>099-180600-
...SOUTHEAST COLORADO...

CITY           SKY/WX    TMP DP  RH WIND       PRES   REMARKS
PUEBLO         FAIR      19  15  84 W5        30.00S WCI  12
LA JUNTA       FAIR      24  21  88 NW6       30.00S WCI  17
LAMAR          FAIR      21  17  84 SW3       30.00R
SPRINGFIELD      N/A     21  20  96 S7        29.99F WCI  12
$$



USA.gov is the U.S. government's official web portal to all federal, state and local government web resources and services.